Pagrindinis puslapis
METAR-TAF:

METAR-TAF

Oro uostai :

Bradshaw Army Air Field

Bradshaw, Havajai, Jungtinės Amerikos Valstijos

platuma: 19-47N, ilguma: 155-33W, Aukštis: 1887 m

Dabartinis oras

Ataskaita buvo paskelbta 52 minutes, ne 00:58 UTC
Vėjas 14 kt iš Vakarų
Temperatūra 18°C
Drėgmė 59%
Slėgis 1027 hPa
Matomumas: 16.1 km
Giedras dangus

METAR: PHSF 240058Z AUTO 27014KT 10SM CLR 18/10 A3034 RMK AO2 SLP178 T01790098 $

Laikas: 15:50 (01:50 UTC)


TAF: trūkstamas

Orai ataskaitas ir orų prognozės (METAR, TAF).

turimą stotys yra geltonos ir raudonos taškus žemėlapyje.

Perkelti pele per norėdami pamatyti stoties vardą.

Tada spustelėkite, norėdami matyti oro stebėjimo ir prognozės.

Norėdami pakeisti žemėlapį: spustelėkite ant žalios mygtukų su juodo kryžiaus žemyn,; žalią mygtuką su brūkšneliu, jei norite nutolinti; arba žalių rodyklių gretimoms žemėlapius.


METAR-TAF: